DW8097 Weather Reports


time (UTC)temp
C
wind
direction
speed
KPH
gust
KPH
rain 1hr
cm
rain 24hr
cm
rain mn
cm
humidity
%
barometer
mb
20260905113038 21 88 3.2 6.4 0.00 0.00 0.00 90 1012.7
20260905111541 21 107 1.6 8.0 0.00 0.00 0.00 90 1012.7
20260905110036 21 101 0.0 4.8 0.00 0.00 0.00 90 1012.6
20260905104532 21 79 4.8 12.9 0.00 0.00 0.00 92 1012.4
20260905103029 21 106 4.8 12.9 0.00 0.00 0.00 92 1012.4
20260905101539 21 132 4.8 12.9 0.00 0.00 0.00 92 1011.8
20260905100027 21 146 4.8 9.7 0.00 0.00 0.00 91 1011.7
20260905094525 21 113 1.6 8.0 0.00 0.00 0.00 91 1011.7
20260905093023 21 97 0.0 0.0 0.00 0.00 0.00 90 1011.6
20260905091522 21 134 0.0 0.0 0.00 0.00 0.00 91 1011.9
20260905090022 21 96 0.0 8.0 0.00 0.00 0.00 92 1012.0
20260905084620 21 103 0.0 6.4 0.00 0.00 0.00 92 1012.0
20260905083017 21 88 0.0 3.2 0.00 0.00 0.00 92 1012.1
20260905081517 21 98 0.0 4.8 0.00 0.00 0.00 92 1012.2
20260905080018 21 120 0.0 4.8 0.00 0.00 0.00 92 1012.2
20260905074516 21 107 0.0 1.6 0.00 0.00 0.00 91 1012.3
20260905073016 21 90 1.6 11.3 0.00 0.00 0.00 90 1012.3
20260905071511 21 118 0.0 4.8 0.00 0.00 0.00 89 1012.2
20260905070013 21 84 1.6 9.7 0.00 0.00 0.00 88 1012.0
20260905064511 21 66 0.0 0.0 0.00 0.00 0.00 87 1012.0
20260905063004 22 92 0.0 6.4 0.00 0.00 0.00 87 1011.8
20260905061502 21 67 0.0 0.0 0.00 0.00 0.00 87 1011.7
20260905060101 22 101 0.0 0.0 0.00 0.00 0.00 86 1011.8
20260905054557 22 115 0.0 3.2 0.00 0.00 0.00 84 1011.8
20260905053059 23 127 3.2 14.5 0.00 0.00 0.00 84 1011.6
20260905051553 23 66 0.0 8.0 0.00 0.00 0.00 83 1011.4
20260905050051 22 65 0.0 0.0 0.00 0.00 0.00 82 1011.3
20260905044550 23 5 0.0 0.0 0.00 0.00 0.00 83 1011.3
20260905043046 23 28 0.0 0.0 0.00 0.00 0.00 80 1011.3
20260905041550 23 5 0.0 3.2 0.00 0.00 0.00 80 1011.3
20260905040042 24 5 0.0 8.0 0.00 0.00 0.00 81 1011.1
20260905034541 24 24 0.0 0.0 0.00 0.00 0.00 80 1011.2
20260905033009 25 355 0.0 1.6 0.00 0.00 0.00 80 1011.2
20260905031506 25 360 0.0 4.8 0.00 0.00 0.00 79 1011.2
20260905030004 26 63 0.0 11.3 0.00 0.00 0.00 79 1011.1
20260905024601 26 127 0.0 6.4 0.00 0.00 0.00 81 1011.1
20260905023059 26 144 0.0 3.2 0.00 0.00 0.00 82 1010.8
20260905021557 26 92 0.0 1.6 0.00 0.00 0.00 81 1010.8
20260905014551 26 48 0.0 0.0 0.00 0.00 0.00 79 1010.5
20260905013047 27 85 0.0 4.8 0.00 0.00 0.00 80 1010.2
20260905011544 27 46 0.0 8.0 0.00 0.00 0.00 79 1010.0
20260905010040 28 315 0.0 4.8 0.00 0.00 0.00 79 1009.7
20260905004538 28 38 0.0 8.0 0.00 0.00 0.00 78 1009.4
20260905003032 28 74 0.0 8.0 0.00 0.00 0.00 77 1009.2
20260905001529 29 360 0.0 9.7 0.00 0.00 0.00 77 1009.2
20260905000026 30 5 0.0 6.4 0.00 0.00 0.00 74 1009.1
20260904234523 30 350 0.0 6.4 0.00 0.00 0.00 74 1009.1
20260904233021 30 31 0.0 6.4 0.00 0.00 0.00 73 1009.0
20260904231526 31 18 0.0 6.4 0.00 0.00 0.00 72 1009.0
20260904230016 31 355 9.7 17.7 0.00 0.00 0.00 72 1008.7
20260904224516 31 348 11.3 20.9 0.00 0.00 0.00 71 1008.6
20260904223019 31 355 8.0 24.1 0.00 0.00 0.00 71 1008.4
20260904221510 32 19 12.9 22.5 0.00 0.00 0.00 70 1008.2
20260904220008 33 334 8.0 19.3 0.00 0.00 0.00 65 1008.1
20260904214537 35 360 0.0 8.0 0.00 0.00 0.00 53 1007.9
20260904213037 35 332 0.0 8.0 0.00 0.00 0.00 53 1007.9
20260904211506 35 271 3.2 11.3 0.00 0.00 0.00 50 1007.8
20260904210018 33 259 0.0 4.8 0.00 0.00 0.00 56 1007.8
20260904204502 35 336 0.0 4.8 0.00 0.00 0.00 53 1007.7
20260904203113 35 114 0.0 0.0 0.00 0.00 0.00 55 1007.8
20260904201557 35 318 0.0 3.2 0.00 0.00 0.00 55 1007.9
20260904200110 34 125 0.0 4.8 0.00 0.00 0.00 58 1008.0
20260904194526 33 350 0.0 11.3 0.00 0.00 0.00 61 1008.1
20260904193024 35 221 0.0 4.8 0.00 0.00 0.00 57 1008.1
20260904191521 34 119 3.2 8.0 0.00 0.00 0.00 60 1008.2
20260904190025 32 261 0.0 8.0 0.00 0.00 0.00 64 1008.4
20260904184518 33 152 0.0 9.7 0.00 0.00 0.00 61 1008.3
20260904183017 34 101 1.6 8.0 0.00 0.00 0.00 59 1008.3
20260904181513 34 117 1.6 16.1 0.00 0.00 0.00 59 1008.3
20260904180011 34 151 0.0 8.0 0.00 0.00 0.00 59 1008.2
20260904174509 34 78 0.0 8.0 0.00 0.00 0.00 58 1008.2
20260904173007 33 128 0.0 8.0 0.00 0.00 0.00 61 1008.3
20260904171501 33 128 1.6 8.0 0.00 0.00 0.00 60 1008.2
20260904170100 33 79 0.0 11.3 0.00 0.00 0.00 60 1008.1
20260904164557 32 126 1.6 11.3 0.00 0.00 0.00 62 1008.2
20260904163050 32 99 0.0 8.0 0.00 0.00 0.00 62 1008.3
20260904161541 31 129 0.0 11.3 0.00 0.00 0.00 63 1008.4
20260904160037 31 86 0.0 8.0 0.00 0.00 0.00 64 1008.4
20260904154534 30 274 0.0 0.0 0.00 0.00 0.00 69 1008.5
20260904153036 29 142 0.0 3.2 0.00 0.00 0.00 67 1008.6
20260904151503 28 186 0.0 3.2 0.00 0.00 0.00 71 1008.6
20260904150005 28 174 0.0 3.2 0.00 0.00 0.00 71 1008.5
20260904144559 27 13 0.0 1.6 0.00 0.00 0.00 72 1008.3
20260904143059 27 250 0.0 1.6 0.00 0.00 0.00 77 1008.5
20260904141558 26 109 0.0 1.6 0.00 0.00 0.00 78 1008.4
20260904140057 26 110 0.0 6.4 0.00 0.00 0.00 78 1008.4
20260904134555 26 78 0.0 4.8 0.00 0.00 0.00 82 1008.6
20260904133054 25 117 0.0 1.6 0.00 0.00 0.00 82 1008.5
20260904131614 23 223 0.0 1.6 0.00 0.00 0.00 86 1008.4
20260904130053 22 224 0.0 3.2 0.00 0.03 0.00 91 1008.1
20260904124550 22 179 0.0 1.6 0.00 0.03 0.00 92 1007.8
20260904123050 21 219 0.0 0.0 0.00 0.03 0.00 93 1007.7
20260904121549 21 219 0.0 0.0 0.00 0.03 0.00 94 1007.6
20260904120052 21 219 0.0 1.6 0.00 0.05 0.00 93 1007.6
20260904114552 21 234 0.0 3.2 0.00 0.05 0.00 93 1007.5